Temp
-23 -23 -23 -23 -23 -24 -24 -24 -24 -23 -25 -25 -23 -21 -20 -21 -21 -20 -20 -20 -20 -20 -19 -19 -18 -18 -17 -16 -15 -15 -14 -14 -14 -14 -15 -15 -15 -15 -15 -15 -14 -13 -12 -12
-23 -24 -24 -24 -24 -24 -25 -25 -24 -24 -26 -25 -25 -23 -23 -24 -23 -23 -22 -21 -20 -21 -21 -20 -19 -19 -18 -17 -16 -16 -15 -15 -15 -15 -16 -15 -15 -15 -14 -14 -14 -13 -13 -12
-24 -24 -24 -24 -24 -25 -26 -26 -25 -25 -26 -25 -25 -25 -24 -24 -24 -24 -23 -22 -22 -21 -21 -21 -21 -21 -19 -19 -18 -17 -17 -16 -16 -15 -16 -16 -15 -15 -15 -15 -14 -13 -12 -12
-24 -24 -24 -24 -25 -25 -25 -25 -25 -25 -25 -25 -25 -25 -24 -24 -24 -24 -23 -23 -22 -22 -22 -21 -22 -21 -21 -20 -19 -18 -18 -17 -17 -17 -16 -16 -16 -16 -16 -15 -15 -14 -13 -12
-24 -24 -25 -25 -25 -26 -25 -25 -25 -25 -25 -25 -25 -25 -24 -24 -24 -24 -23 -23 -23 -23 -22 -22 -22 -22 -21 -20 -21 -20 -19 -19 -19 -18 -18 -17 -16 -16 -16 -16 -16 -14 -13 -12
-24 -25 -25 -25 -25 -26 -25 -25 -25 -25 -25 -24 -25 -24 -24 -24 -24 -23 -23 -23 -24 -23 -23 -22 -22 -21 -21 -21 -21 -21 -20 -20 -20 -19 -19 -19 -17 -17 -17 -17 -17 -16 -14 -13
-25 -25 -25 -25 -26 -26 -25 -24 -24 -24 -24 -24 -24 -24 -24 -23 -23 -23 -23 -23 -23 -23 -23 -22 -22 -22 -21 -21 -21 -21 -21 -20 -20 -19 -20 -19 -18 -19 -19 -19 -17 -17 -16 -15
-25 -25 -25 -25 -25 -26 -24 -24 -25 -24 -23 -24 -24 -23 -23 -23 -23 -23 -23 -23 -24 -23 -22 -22 -21 -21 -21 -20 -21 -21 -21 -21 -21 -20 -19 -19 -19 -19 -19 -19 -18 -18 -18 -17
-25 -25 -25 -25 -25 -25 -25 -24 -24 -24 -24 -23 -24 -23 -23 -23 -23 -23 -23 -23 -24 -23 -22 -22 -21 -21 -21 -20 -20 -20 -20 -20 -20 -20 -20 -19 -19 -19 -19 -19 -18 -18 -18 -17
-25 -25 -24 -25 -25 -24 -24 -24 -24 -24 -23 -23 -23 -23 -23 -23 -23 -23 -23 -23 -23 -23 -22 -22 -21 -21 -21 -21 -20 -20 -20 -20 -20 -20 -20 -20 -20 -20 -20 -19 -19 -18 -18 -17
-25 -25 -25 -24 -24 -24 -23 -23 -23 -23 -23 -23 -23 -23 -23 -23 -23 -22 -23 -23 -23 -23 -22 -21 -21 -21 -21 -21 -21 -20 -20 -20 -20 -20 -20 -20 -20 -20 -20 -21 -20 -19 -18 -18
-24 -24 -24 -23 -23 -23 -23 -23 -23 -23 -23 -23 -23 -23 -23 -23 -23 -23 -22 -23 -23 -23 -22 -21 -21 -21 -20 -21 -20 -21 -20 -21 -21 -21 -20 -20 -21 -21 -21 -21 -20 -19 -18 -18
-24 -24 -23 -23 -23 -23 -23 -23 -23 -23 -23 -23 -22 -22 -22 -22 -22 -22 -22 -22 -23 -22 -22 -22 -21 -21 -21 -20 -20 -21 -21 -21 -21 -21 -20 -21 -21 -21 -21 -21 -20 -20 -18 -18
-25 -25 -25 -24 -24 -24 -23 -23 -23 -23 -23 -23 -22 -22 -23 -23 -23 -23 -23 -23 -23 -23 -23 -23 -22 -21 -21 -21 -21 -21 -21 -21 -21 -21 -21 -21 -21 -21 -21 -21 -21 -20 -19 -19
-26 -25 -25 -25 -25 -26 -25 -25 -25 -24 -24 -23 -23 -23 -24 -24 -23 -23 -23 -24 -24 -23 -24 -24 -23 -22 -23 -23 -23 -22 -22 -21 -22 -21 -21 -21 -22 -22 -21 -21 -21 -20 -19 -19
-27 -27 -27 -27 -26 -27 -27 -27 -26 -26 -26 -25 -24 -24 -25 -24 -24 -24 -24 -24 -25 -24 -24 -24 -24 -24 -24 -23 -23 -23 -23 -22 -22 -22 -22 -22 -22 -21 -21 -21 -21 -20 -19 -20
-27 -27 -27 -27 -27 -28 -28 -27 -26 -27 -27 -26 -26 -26 -26 -25 -25 -25 -24 -25 -25 -25 -25 -24 -24 -24 -24 -24 -24 -23 -23 -23 -23 -23 -23 -23 -22 -21 -21 -21 -21 -20 -20 -19
-28 -28 -28 -28 -28 -28 -28 -27 -28 -28 -27 -26 -26 -26 -26 -26 -25 -25 -25 -26 -25 -25 -24 -24 -24 -25 -25 -24 -23 -23 -23 -23 -23 -23 -23 -23 -22 -22 -22 -22 -21 -21 -20 -19
-29 -29 -28 -28 -28 -28 -28 -28 -28 -27 -27 -27 -26 -26 -27 -26 -26 -26 -26 -26 -25 -25 -25 -25 -25 -25 -24 -24 -24 -24 -23 -24 -24 -23 -23 -22 -22 -22 -22 -22 -21 -21 -21 -21
-28 -28 -28 -28 -28 -28 -28 -28 -27 -27 -27 -27 -27 -26 -26 -26 -26 -25 -26 -26 -26 -25 -25 -24 -24 -24 -24 -24 -24 -24 -24 -24 -23 -23 -22 -22 -22 -22 -22 -22 -21 -21 -21 -21
-28 -28 -28 -28 -28 -28 -28 -28 -27 -27 -27 -26 -26 -26 -26 -26 -25 -25 -25 -25 -25 -25 -25 -24 -24 -24 -24 -24 -24 -24 -24 -24 -23 -23 -23 -23 -22 -22 -22 -22 -22 -21 -21 -21
-28 -27 -28 -28 -28 -28 -28 -27 -27 -27 -26 -26 -26 -26 -26 -26 -25 -26 -25 -25 -25 -25 -25 -24 -24 -24 -24 -24 -24 -24 -23 -23 -23 -23 -23 -22 -22 -22 -22 -22 -21 -21 -21 -21
-27 -27 -27 -27 -27 -27 -27 -27 -26 -26 -26 -26 -26 -25 -25 -25 -25 -25 -25 -25 -25 -24 -24 -24 -24 -24 -24 -23 -23 -23 -23 -23 -23 -23 -22 -22 -22 -22 -22 -22 -22 -22 -22 -21
-27 -27 -27 -26 -26 -26 -26 -26 -26 -26 -25 -25 -25 -25 -25 -25 -25 -25 -24 -24 -24 -24 -24 -24 -24 -23 -23 -23 -23 -23 -23 -23 -22 -22 -22 -22 -22 -22 -22 -22 -22 -21 -21 -21
-26 -26 -26 -26 -26 -26 -26 -26 -26 -25 -25 -25 -25 -25 -25 -25 -25 -25 -25 -24 -24 -24 -24 -24 -23 -23 -23 -23 -23 -23 -23 -22 -22 -22 -22 -22 -22 -22 -22 -22 -22 -21 -21 -21
-26 -26 -26 -26 -26 -26 -26 -26 -25 -25 -25 -25 -25 -25 -25 -25 -25 -25 -25 -24 -24 -24 -24 -23 -23 -23 -23 -23 -23 -23 -23 -23 -22 -22 -22 -22 -22 -22 -22 -22 -22 -22 -22 -22
-26 -25 -25 -25 -25 -25 -25 -24 -24 -24 -24 -25 -25 -25 -25 -25 -25 -24 -24 -24 -24 -23 -23 -23 -23 -22 -22 -22 -22 -23 -22 -22 -23 -23 -23 -23 -22 -22 -22 -23 -22 -22 -22 -22
Height
5514 5516 5519 5519 5518 5515 5515 5517 5520 5530 5529 5528 5530 5538 5541 5550 5556 5561 5570 5577 5583 5588 5594 5600 5605 5607 5611 5616 5621 5627 5632 5637 5642 5651 5655 5657 5660 5663 5665 5666 5670 5670 5672 5673
5499 5501 5503 5504 5503 5501 5501 5502 5509 5513 5515 5514 5520 5525 5532 5538 5547 5554 5558 5566 5572 5578 5582 5588 5593 5597 5601 5606 5612 5617 5624 5628 5634 5640 5647 5648 5651 5653 5656 5657 5659 5662 5665 5665
5482 5486 5488 5489 5489 5487 5488 5491 5495 5500 5502 5508 5513 5516 5524 5532 5539 5545 5550 5555 5560 5566 5569 5573 5579 5587 5591 5596 5602 5609 5614 5619 5624 5627 5635 5641 5643 5646 5647 5650 5653 5653 5657 5656
5467 5471 5473 5474 5475 5476 5476 5479 5486 5490 5495 5501 5505 5510 5518 5525 5531 5538 5542 5549 5553 5557 5561 5565 5569 5576 5581 5588 5593 5599 5604 5607 5613 5617 5621 5630 5635 5637 5639 5641 5643 5645 5650 5650
5452 5456 5458 5461 5464 5464 5464 5472 5478 5484 5489 5494 5499 5504 5512 5519 5526 5532 5537 5543 5545 5546 5552 5557 5563 5568 5575 5580 5586 5590 5596 5598 5602 5607 5611 5615 5624 5628 5630 5632 5633 5635 5638 5642
5437 5442 5445 5449 5452 5453 5456 5466 5472 5476 5481 5486 5491 5499 5507 5514 5519 5526 5532 5537 5539 5542 5544 5551 5556 5561 5567 5574 5578 5584 5590 5593 5596 5599 5603 5603 5610 5621 5619 5622 5624 5626 5628 5631
5423 5427 5432 5436 5441 5447 5451 5459 5465 5468 5472 5479 5485 5492 5499 5507 5514 5520 5525 5529 5535 5537 5540 5545 5551 5557 5562 5566 5569 5576 5583 5586 5588 5592 5594 5595 5608 5606 5610 5608 5612 5616 5617 5619
5409 5414 5420 5425 5434 5440 5444 5450 5457 5462 5466 5472 5479 5486 5494 5500 5507 5513 5519 5526 5529 5533 5536 5541 5546 5552 5557 5561 5565 5570 5575 5579 5581 5584 5584 5590 5601 5601 5601 5597 5604 5604 5607 5609
5397 5403 5408 5417 5426 5433 5437 5443 5450 5455 5459 5467 5475 5481 5488 5494 5501 5506 5514 5520 5523 5528 5532 5537 5542 5547 5553 5557 5561 5565 5569 5573 5576 5579 5578 5582 5591 5590 5584 5581 5595 5598 5602 5600
5386 5392 5400 5409 5416 5424 5430 5436 5442 5447 5452 5461 5468 5475 5482 5488 5494 5501 5507 5513 5517 5521 5527 5532 5537 5542 5547 5551 5556 5560 5563 5566 5569 5569 5571 5580 5583 5577 5574 5577 5579 5581 5583 5590
5377 5385 5392 5400 5408 5416 5424 5429 5434 5439 5445 5454 5460 5467 5473 5480 5485 5493 5500 5505 5510 5514 5518 5525 5530 5534 5540 5545 5549 5553 5556 5558 5561 5561 5565 5571 5572 5571 5568 5565 5568 5568 5573 5577
5368 5375 5383 5391 5399 5408 5416 5422 5428 5433 5439 5444 5451 5458 5466 5472 5479 5484 5489 5498 5503 5508 5511 5515 5519 5525 5532 5537 5543 5545 5549 5551 5552 5556 5561 5562 5563 5563 5560 5558 5562 5561 5563 5565
5359 5366 5373 5381 5389 5397 5406 5414 5420 5425 5430 5436 5443 5451 5457 5463 5470 5476 5484 5490 5496 5501 5504 5507 5512 5519 5523 5528 5532 5535 5538 5540 5545 5546 5554 5554 5556 5556 5551 5554 5552 5551 5554 5556
5349 5355 5362 5369 5377 5385 5393 5403 5410 5416 5423 5427 5435 5442 5449 5456 5461 5467 5475 5481 5486 5491 5496 5498 5505 5511 5514 5518 5520 5526 5529 5532 5536 5539 5543 5544 5548 5545 5547 5547 5543 5541 5542 5548
5339 5345 5352 5360 5368 5376 5384 5391 5400 5407 5414 5421 5426 5431 5439 5445 5452 5460 5467 5473 5478 5482 5487 5490 5498 5501 5505 5508 5512 5517 5519 5524 5524 5529 5531 5535 5537 5538 5539 5540 5538 5534 5535 5538
5328 5335 5343 5351 5359 5368 5375 5382 5390 5400 5404 5411 5417 5424 5429 5435 5443 5450 5458 5466 5471 5475 5479 5484 5490 5494 5496 5499 5503 5506 5508 5510 5512 5516 5519 5524 5526 5529 5529 5530 5529 5527 5529 5529
5318 5325 5335 5345 5353 5362 5371 5382 5393 5396 5400 5408 5413 5418 5423 5428 5435 5443 5450 5459 5466 5469 5473 5478 5483 5486 5487 5489 5494 5497 5500 5501 5503 5505 5508 5511 5516 5519 5519 5520 5521 5520 5519 5521
5308 5316 5330 5342 5352 5362 5371 5379 5386 5390 5398 5404 5410 5417 5420 5424 5432 5437 5445 5453 5459 5463 5468 5471 5474 5478 5479 5483 5489 5490 5491 5493 5493 5498 5499 5502 5506 5509 5510 5511 5512 5513 5512 5514
5309 5317 5330 5343 5353 5362 5371 5379 5384 5390 5398 5402 5409 5414 5417 5422 5427 5432 5440 5446 5454 5461 5464 5467 5470 5473 5474 5478 5481 5484 5486 5488 5488 5490 5492 5494 5497 5500 5501 5502 5504 5505 5506 5504
5324 5332 5340 5350 5358 5366 5373 5380 5387 5392 5397 5402 5405 5409 5414 5422 5426 5431 5439 5445 5452 5456 5460 5462 5464 5467 5470 5474 5475 5477 5480 5482 5483 5484 5485 5487 5489 5493 5494 5495 5497 5498 5498 5498
5340 5346 5353 5358 5364 5374 5381 5386 5389 5395 5399 5401 5406 5410 5415 5421 5423 5430 5437 5443 5449 5453 5456 5458 5459 5463 5466 5468 5470 5471 5474 5475 5477 5479 5480 5480 5482 5485 5487 5487 5488 5489 5490 5491
5356 5360 5364 5368 5374 5381 5385 5389 5393 5397 5401 5405 5409 5413 5418 5421 5425 5430 5436 5442 5447 5449 5452 5454 5456 5460 5462 5464 5466 5468 5468 5469 5471 5473 5475 5476 5476 5477 5478 5478 5480 5482 5482 5482
5367 5371 5374 5378 5382 5385 5388 5393 5398 5401 5405 5409 5413 5417 5419 5422 5427 5432 5436 5440 5443 5446 5448 5447 5453 5457 5458 5460 5462 5464 5464 5464 5466 5468 5469 5470 5470 5470 5471 5471 5472 5472 5472 5472
5377 5379 5381 5385 5389 5392 5395 5399 5402 5405 5408 5411 5414 5417 5420 5423 5427 5430 5433 5438 5442 5442 5445 5448 5450 5452 5454 5456 5459 5460 5460 5461 5462 5463 5463 5463 5463 5463 5462 5462 5462 5462 5463 5464
5383 5386 5388 5390 5393 5396 5398 5401 5404 5407 5410 5413 5415 5418 5422 5423 5426 5429 5433 5436 5438 5440 5443 5445 5447 5449 5452 5453 5455 5456 5457 5457 5457 5457 5456 5455 5455 5454 5454 5454 5453 5453 5452 5452
5387 5389 5391 5393 5396 5398 5400 5402 5405 5407 5410 5413 5416 5419 5422 5424 5427 5430 5432 5434 5436 5438 5439 5441 5444 5447 5449 5451 5452 5452 5451 5451 5450 5448 5448 5447 5446 5446 5445 5444 5443 5443 5443 5442
5391 5392 5393 5395 5397 5400 5402 5404 5407 5409 5413 5415 5417 5420 5422 5424 5426 5429 5431 5432 5435 5436 5438 5440 5441 5443 5445 5447 5447 5447 5446 5444 5443 5443 5442 5441 5440 5440 5440 5439 5437 5436 5435 5434
Wind_Speed
55 52 48 48 47 47 48 48 48 41 41 46 54 54 56 54 52 52 45 47 46 43 43 41 42 44 44 47 47 47 48 50 48 44 43 44 45 43 42 44 44 45 45 43
53 51 47 47 46 50 49 48 44 40 40 44 46 48 48 46 45 41 41 40 44 46 47 45 46 47 48 48 49 49 48 48 48 47 43 45 48 49 49 49 48 46 46 46
52 49 46 45 46 42 40 42 43 41 40 37 30 35 33 34 30 29 32 34 40 46 52 52 48 48 51 51 51 50 51 49 48 50 46 45 47 49 51 52 52 50 43 46
51 47 44 44 42 42 45 43 39 37 38 35 31 31 26 27 27 27 29 30 35 39 46 48 53 48 50 54 49 51 52 52 52 53 52 47 49 50 51 52 53 53 49 50
48 45 42 41 41 43 43 37 35 37 36 35 31 30 25 26 25 26 26 26 28 36 37 40 43 52 51 46 47 49 49 50 48 49 49 51 49 51 55 54 56 56 55 53
46 43 41 40 41 39 39 35 36 38 34 36 34 26 23 22 25 25 24 27 27 31 37 37 38 39 42 54 52 48 46 43 41 45 47 48 49 49 51 55 57 60 61 59
44 40 40 40 37 33 33 34 37 38 35 34 33 31 27 24 23 27 27 26 22 24 34 35 33 30 28 24 34 49 42 46 47 45 45 49 45 42 43 50 56 58 63 64
40 39 38 37 37 33 36 37 35 35 33 33 32 30 27 27 26 27 27 25 22 23 31 31 30 28 26 22 21 26 33 36 39 44 47 46 49 46 48 53 53 52 53 62
37 38 37 40 37 38 40 38 39 40 39 35 34 33 31 26 26 28 26 26 26 26 29 32 32 31 29 29 27 26 26 27 29 31 34 37 28 33 37 44 51 50 44 49
34 34 38 39 40 39 41 40 38 40 38 34 34 35 33 30 29 30 30 28 27 31 32 32 34 33 33 33 32 31 31 31 29 32 32 20 23 33 37 40 43 51 55 45
33 37 39 39 38 39 42 42 39 39 39 36 36 35 36 37 35 32 32 31 31 33 35 33 34 37 38 38 37 37 36 36 36 38 35 26 28 33 34 33 29 37 56 45
34 35 37 39 40 43 44 44 42 43 43 43 41 40 36 37 40 39 37 34 33 35 40 41 39 38 38 37 39 41 42 42 43 41 37 37 34 35 34 27 29 32 45 46
36 39 41 43 44 45 44 44 43 44 49 49 48 43 42 41 41 43 41 39 38 41 44 47 46 45 44 44 44 45 45 45 45 45 38 39 35 33 36 34 33 31 35 36
35 36 38 39 41 42 45 46 45 46 47 48 49 48 46 45 44 44 41 37 38 41 46 49 51 50 49 47 46 46 44 44 45 46 45 44 39 39 34 33 36 24 39 38
34 35 35 37 37 36 36 39 38 42 46 49 51 49 47 47 47 45 42 37 36 41 43 43 47 48 48 48 47 48 48 48 50 48 49 46 40 39 37 32 31 24 28 36
30 31 33 32 32 34 35 35 35 34 36 42 45 44 47 49 51 49 47 40 34 37 39 44 44 39 37 39 38 40 42 46 48 49 47 42 38 36 38 36 33 20 17 17
30 32 31 30 30 30 33 33 28 29 34 33 33 32 33 38 40 42 50 40 31 26 29 34 39 36 35 35 32 31 29 32 32 33 37 37 34 32 38 38 26 24 19 21
20 30 34 31 28 29 29 26 28 30 27 26 25 29 35 36 35 38 39 32 33 21 20 25 27 30 34 34 29 31 29 35 31 21 28 33 31 35 39 36 30 29 22 20
28 33 38 35 29 29 29 28 28 27 26 25 24 19 24 35 28 28 39 36 34 23 24 29 29 30 34 38 38 34 31 29 27 28 27 31 31 35 36 35 31 31 32 18
37 39 37 30 32 32 36 36 28 22 26 28 12 14 17 28 25 29 35 38 35 29 29 25 28 29 30 33 38 41 30 31 32 30 32 31 29 30 32 33 33 32 33 29
33 36 36 39 32 28 26 25 28 24 18 17 17 19 19 28 26 34 30 30 27 24 20 27 28 21 24 25 23 19 25 28 32 30 22 29 32 32 31 32 33 36 39 35
33 33 35 36 34 27 26 23 19 22 24 19 18 16 17 17 20 18 23 27 26 27 24 24 30 27 24 25 24 23 22 21 25 27 29 26 29 30 32 33 37 39 39 39
34 32 28 26 26 29 26 25 21 20 20 19 19 11 13 15 16 22 23 24 25 25 26 28 24 22 21 19 22 22 12 12 20 30 24 21 28 31 37 34 32 38 40 39
24 20 21 22 23 20 18 20 15 12 15 15 15 16 12 12 17 19 20 22 22 22 23 21 19 19 18 19 25 17 16 19 20 24 29 30 30 31 34 37 40 43 42 44
18 17 13 13 12 13 15 15 13 12 13 14 14 15 14 15 11 11 12 15 20 19 17 15 15 16 20 23 22 17 14 19 18 20 22 21 23 26 30 30 27 30 35 37
13 11 11 12 12 11 11 11 11 11 12 13 14 14 19 18 16 13 9 9 5 6 8 11 15 19 20 23 23 21 21 21 23 14 16 23 25 27 25 20 20 23 24 25
10 9 10 11 12 11 11 14 14 13 14 14 10 9 12 23 19 10 4 4 7 4 9 13 16 18 20 18 19 21 20 18 10 10 13 13 16 19 21 21 22 24 26 29
Wind_Direction
267 265 261 268 276 271 269 266 265 264 250 248 243 239 238 235 236 239 235 230 233 233 235 227 223 227 226 229 229 228 231 233 235 229 230 231 233 237 235 241 246 254 259 261
264 258 258 268 272 272 266 260 257 251 243 242 245 241 240 241 237 236 241 232 228 228 231 229 223 224 228 230 233 233 231 235 238 237 230 235 237 239 239 239 244 249 254 261
259 253 258 267 272 262 257 254 251 241 237 235 242 245 236 235 236 235 232 224 219 220 224 227 226 220 225 230 232 236 238 236 237 241 238 234 238 239 241 241 244 249 250 256
252 250 257 267 259 256 260 252 244 233 231 231 238 232 221 217 224 230 227 214 219 224 225 226 225 218 225 223 227 233 235 239 241 241 244 239 238 241 240 243 244 245 249 253
244 245 257 260 250 257 249 239 235 228 230 235 233 229 215 218 223 226 219 208 216 222 224 226 229 230 225 227 232 232 233 239 243 246 248 247 239 240 243 243 245 248 251 253
240 243 256 248 251 242 234 231 229 231 235 236 235 229 230 225 229 219 214 214 220 224 224 221 227 232 232 234 231 234 239 242 244 247 247 249 245 241 244 245 247 249 250 250
237 249 246 247 226 226 227 220 224 238 242 241 242 240 238 235 226 211 208 212 215 226 224 224 224 226 233 240 240 238 243 241 245 244 253 245 246 249 245 246 245 247 251 251
242 245 244 225 214 220 224 228 233 242 243 242 241 243 236 234 228 219 209 209 220 224 223 224 222 222 224 229 228 233 241 248 251 252 260 261 257 267 264 259 245 249 251 252
243 240 224 213 216 220 223 228 240 242 242 237 241 240 234 237 223 219 211 218 226 223 225 228 225 224 225 228 229 234 239 243 250 255 262 267 274 271 264 269 257 259 254 262
232 223 216 216 222 220 224 230 234 235 236 233 232 230 236 238 229 220 217 228 233 233 228 229 231 230 232 236 234 235 242 249 255 261 268 283 276 277 277 278 267 252 247 251
223 222 224 224 223 221 223 229 232 235 238 238 237 237 238 239 236 229 225 226 230 237 242 240 241 240 239 240 243 244 245 250 256 262 269 280 279 282 287 285 287 262 251 254
223 223 223 223 221 221 224 227 231 233 237 240 239 237 237 238 236 237 237 232 230 234 241 244 243 244 243 244 244 245 247 251 255 258 263 270 274 282 283 283 288 262 249 256
226 226 225 223 223 224 228 229 230 232 236 238 238 238 242 243 240 237 235 233 231 232 238 240 243 243 245 245 243 245 247 251 254 257 260 265 268 280 279 280 284 266 244 245
234 233 232 232 232 233 233 232 233 234 234 235 237 237 239 239 237 237 234 231 228 226 227 237 240 243 244 245 248 248 250 250 254 257 259 263 265 268 277 281 281 267 257 250
232 231 230 229 227 226 228 230 226 226 228 233 235 236 235 233 234 233 232 229 227 230 230 235 238 243 245 246 249 251 255 257 257 257 258 262 261 263 274 266 272 267 276 270
233 229 223 222 221 217 209 214 218 215 219 226 228 232 234 236 234 233 231 230 240 240 241 239 237 241 249 253 256 256 257 257 257 257 255 254 253 257 267 262 262 252 256 261
222 217 212 208 206 204 208 214 215 211 213 217 219 219 228 230 232 231 231 222 213 221 243 250 246 250 249 250 253 250 252 243 245 253 243 243 244 247 259 252 259 261 242 251
196 193 186 180 183 189 187 178 184 195 195 200 209 215 220 226 228 230 223 208 209 204 214 242 240 237 241 248 251 236 242 236 253 245 245 240 242 254 260 258 263 260 248 241
140 147 159 165 166 171 173 171 182 190 192 193 190 199 223 220 226 225 207 205 206 222 232 236 246 246 241 240 248 249 235 244 248 244 241 236 242 249 258 255 260 257 252 240
118 132 133 143 147 151 157 168 164 171 179 172 156 169 194 208 203 205 213 213 219 222 228 235 245 242 243 248 256 248 244 246 250 246 250 250 247 244 248 248 253 251 253 250
129 128 131 135 141 148 151 147 176 173 181 170 165 176 185 192 214 213 210 207 203 222 238 235 243 245 248 252 263 250 243 254 248 249 256 262 251 252 256 255 251 252 252 255
116 123 126 133 133 149 156 153 171 176 160 144 143 146 171 181 177 181 192 211 229 226 241 244 233 247 256 259 247 255 267 266 258 245 247 254 254 257 263 261 253 253 253 251
121 124 115 129 150 151 159 153 139 138 148 153 164 150 158 171 175 191 206 214 212 226 240 244 246 250 260 257 253 256 235 231 254 257 257 261 266 252 249 256 263 260 250 248
134 134 145 147 144 151 148 151 147 152 161 168 177 180 173 171 177 190 201 207 215 230 238 245 245 247 252 251 253 259 255 251 251 258 263 259 251 256 259 261 265 266 259 259
142 153 154 154 154 162 166 176 182 179 174 178 189 191 180 172 163 183 202 217 229 231 232 234 231 237 240 244 251 269 260 267 270 269 267 273 265 255 255 259 259 262 262 263
150 161 168 170 168 167 167 176 179 176 169 160 159 155 173 175 180 214 217 219 202 219 234 239 236 237 244 256 263 266 275 270 278 254 265 272 276 275 278 272 264 263 262 261
138 156 166 171 176 171 161 159 145 171 171 172 164 185 189 201 203 198 204 171 174 217 255 264 245 238 239 252 256 264 270 281 276 270 270 267 267 269 269 271 272 273 273 274